This demonstration page uses our WeatherBlox Daily Observations layout. Learn more.

Left ArrowRight Arrow

38.20091, -84.87328

Hourly Observations for August 18, 2021

Temp ( °F °C ) Dew Point ( °F °C ) Humidity (%) Winds ( mph kmh ) Pressure ( in mb ) Visibility ( mi km ) Precip ( " mm )
12:53 am 00:53 Clear 71 21.7 69 20.6 94 94 Calm 29.97 1015 10 16 0.00 0.00
1:53 am 01:53 Clear 71 21.7 69 20.6 94 94 NNW 3 6 29.97 1015 10 16 0.00 0.00
2:53 am 02:53 Clear 70 21.1 68 20 93 93 Calm 29.97 1015 10 16 0.00 0.00
3:53 am 03:53 Clear 70 21.1 68 20 93 93 NW 3 6 29.99 1016 10 16 0.00 0.00
4:50 am 04:50 Clear with Mist and Fog 70 21 68 20 94 94 WSW 3 6 30.01 1016 2 3 0.00 0.00
4:53 am 04:53 Clear with Mist and Fog 69 20.6 68 20 96 96 Calm 30.01 1016 4 6 0.00 0.00
5:53 am 05:53 Clear 69 20.6 68 20 96 96 Calm 30.03 1017 10 16 0.00 0.00
6:10 am 06:10 Clear with Mist and Fog 69 20.6 68 20 96 96 Calm 30.03 1017 2 2 0.00 0.00
6:13 am 06:13 Clear with Mist and Fog 68 20 68 20 100 100 Calm 30.03 1017 1 1 0.00 0.00
6:22 am 06:22 Clear with Mist and Fog 69 20.6 68 20 96 96 Calm 30.04 1017 1 2 0.00 0.00
6:28 am 06:28 Clear with Mist and Fog 69 20.6 68 20 96 96 Calm 30.04 1017 3 5 0.00 0.00
6:53 am 06:53 Clear 69 20.6 68 20 96 96 Calm 30.04 1017 9 14 0.00 0.00
7:11 am 07:11 Sunny with Mist and Fog 68 20 67 19.4 96 96 Calm 30.06 1018 1 2 0.00 0.00
7:15 am 07:15 Mostly Cloudy with Mist and Fog 68 20 67 19.4 96 96 WSW 3 6 30.06 1018 1 1 0.00 0.00
7:21 am 07:21 Sunny with Mist and Fog 68 20 67 19.4 96 96 WSW 3 6 30.07 1018 2 2 0.00 0.00
7:24 am 07:24 Sunny with Mist and Fog 68 20 68 20 100 100 Calm 30.07 1018 3 5 0.00 0.00
7:35 am 07:35 Partly Cloudy with Mist and Fog 69 20.6 68 20 96 96 Calm 30.07 1018 4 6 0.00 0.00
7:38 am 07:38 Partly Cloudy with Mist and Fog 68 20 68 20 100 100 Calm 30.07 1018 2 3 0.00 0.00
7:49 am 07:49 Partly Cloudy with Mist and Fog 70 21 68 20 94 94 Calm 30.07 1018 3 5 0.00 0.00
7:53 am 07:53 Partly Cloudy with Mist and Fog 69 20.6 69 20.6 100 100 Calm 30.07 1018 5 8 0.00 0.00
8:53 am 08:53 Sunny 73 22.8 71 21.7 94 94 SW 3 6 30.09 1019 10 16 0.00 0.00
9:53 am 09:53 Partly Cloudy 79 26.1 73 22.8 82 82 SW 5 7 30.09 1019 10 16 0.00 0.00
10:53 am 10:53 Partly Cloudy 81 27.2 73 22.8 77 77 WSW 5 7 30.09 1019 10 16 0.00 0.00
11:16 am 11:16 Mostly Cloudy 82 27.8 72 22.2 72 72 VRB 5 7 30.09 1019 10 16 0.00 0.00
11:46 am 11:46 Partly Cloudy 83 28.3 71 21.7 67 67 VRB 3 6 30.09 1019 10 16 0.00 0.00
11:53 am 11:53 Mostly Cloudy 83 28.3 72 22.2 70 70 SW 6 9 30.10 1019 10 16 0.00 0.00
12:09 pm 12:09 Partly Cloudy 83 28.3 72 22.2 70 70 VRB 5 7 30.09 1019 10 16 0.00 0.00
12:53 pm 12:53 Mostly Cloudy 86 30 71 21.7 61 61 W 5 7 30.11 1020 10 16 0.00 0.00
1:53 pm 13:53 Partly Cloudy 85 29.4 70 21.1 61 61 W 5 7 30.09 1019 10 16 0.00 0.00
2:53 pm 14:53 Mostly Sunny 88 31.1 70 21.1 55 55 VRB 7 11 30.08 1019 10 16 0.00 0.00
3:53 pm 15:53 Sunny 89 31.7 69 20.6 52 52 SW 7 11 30.07 1018 10 16 0.00 0.00
4:53 pm 16:53 Sunny 86 30 69 20.6 57 57 SSW 6 9 30.07 1018 10 16 0.00 0.00
5:53 pm 17:53 Sunny 85 29.4 70 21.1 61 61 SSW 8 13 30.06 1018 10 16 0.00 0.00
6:53 pm 18:53 Sunny 84 28.9 72 22.2 67 67 SW 7 11 30.07 1018 10 16 0.00 0.00
7:53 pm 19:53 Sunny 80 26.7 73 22.8 79 79 SW 8 13 30.09 1019 10 16 0.00 0.00
8:53 pm 20:53 Clear 78 25.6 73 22.8 85 85 SW 5 7 30.09 1019 10 16 0.00 0.00
9:53 pm 21:53 Clear 77 25 73 22.8 88 88 SSW 7 11 30.10 1019 10 16 0.00 0.00
10:53 pm 22:53 Mostly Clear 76 24.4 72 22.2 88 88 WSW 5 7 30.11 1020 10 16 0.00 0.00
11:53 pm 23:53 Mostly Clear 76 24.4 72 22.2 88 88 Calm 30.11 1020 10 16 0.00 0.00

Powered by AerisWeather